This demonstration page uses our WeatherBlox Daily Observations layout. Learn more.

Left ArrowRight Arrow

34.02893, -84.19858

Hourly Observations for May 1, 2015

Temp ( °F °C ) Dew Point ( °F °C ) Humidity (%) Winds ( mph kmh ) Pressure ( in mb ) Visibility ( mi km ) Precip ( " mm )
12:53 am 00:53 Mostly Cloudy 58 14.4 40 4.4 51 51 NNW 8 13 29.89 1012 10 16 0.00 0.00
1:53 am 01:53 Mostly Clear 55 12.8 41 5 59 59 NNW 10 17 29.90 1012 10 16 0.00 0.00
2:53 am 02:53 Clear 52 11.1 42 5.6 69 69 NNW 7 11 29.89 1012 10 16 0.00 0.00
3:53 am 03:53 Clear 50 10 41 5 71 71 NW 6 9 29.89 1012 10 16 0.00 0.00
4:53 am 04:53 Clear 50 10 43 6.1 77 77 WNW 8 13 29.90 1013 10 16 0.00 0.00
5:53 am 05:53 Clear 47 8.3 42 5.6 83 83 NW 6 9 29.91 1013 10 16 0.00 0.00
6:53 am 06:53 Sunny 46 7.8 41 5 83 83 NW 9 15 29.93 1014 10 16 0.00 0.00
7:53 am 07:53 Sunny 49 9.4 41 5 74 74 NNW 12 19 29.96 1015 10 16 0.00 0.00
8:53 am 08:53 Sunny 52 11.1 42 5.6 69 69 NW 8 13 29.97 1015 10 16 0.00 0.00
9:53 am 09:53 Sunny 56 13.3 42 5.6 60 60 NW 10 17 29.98 1015 10 16 0.00 0.00
10:53 am 10:53 Sunny 61 16.1 43 6.1 52 52 N 9 15 29.98 1015 10 16 0.00 0.00
11:53 am 11:53 Sunny 63 17.2 40 4.4 43 43 N 14 22 29.99 1016 10 16 0.00 0.00
12:53 pm 12:53 Sunny 66 18.9 40 4.4 39 39 NNW 12 19 29.98 1015 10 16 0.00 0.00
1:53 pm 13:53 Sunny 67 19.4 38 3.3 35 35 NW 8 13 29.98 1015 10 16 0.00 0.00
2:53 pm 14:53 Sunny 69 20.6 42 5.6 38 38 WNW 12 19 29.97 1015 10 16 0.00 0.00
3:53 pm 15:53 Sunny 69 20.6 43 6.1 39 39 NW 13 20 29.96 1015 10 16 0.00 0.00
4:53 pm 16:53 Sunny 70 21.1 43 6.1 38 38 NW 9 15 29.95 1014 10 16 0.00 0.00
5:53 pm 17:53 Sunny 70 21.1 43 6.1 38 38 NW 12 19 29.96 1015 10 16 0.00 0.00
6:53 pm 18:53 Sunny 67 19.4 44 6.7 44 44 NW 10 17 29.97 1015 10 16 0.00 0.00
7:53 pm 19:53 Partly Cloudy 68 20 43 6 40 40 W 13 20 29.77 1008 10 16 0.00 0.00
8:53 pm 20:53 Clear 62 16.7 43 6.1 50 50 NW 7 11 30.02 1017 10 16 0.00 0.00
9:53 pm 21:53 Clear 60 15.6 44 6.7 56 56 NNW 9 15 30.04 1017 10 16 0.00 0.00
10:53 pm 22:53 Clear 57 13.9 44 6.7 62 62 NNW 6 9 30.06 1018 10 16 0.00 0.00
11:53 pm 23:53 Clear 55 12.8 44 6.7 67 67 N 5 7 30.06 1018 10 16 0.00 0.00

Powered by AerisWeather